Location: Caltech
(34.1382°N, 118.1253°W)
Time: 12:52:55
(UTC-08:00)

Tiros 1 despin weight - Visible Passes

Search period start: 23 January 2017 00:00
Search period end: 02 February 2017 00:00
Orbit: 595 x 644 km, 48.2° (Epoch: 22 January)

Date Brightness Start Highest point End Pass type
(mag) Time Alt. Az. Time Alt. Az. Time Alt. Az.
23 Jan ? 05:24:09 13° NNW 05:24:56 14° N 05:27:15 10° NNE visible
24 Jan ? 05:40:29 11° NNW 05:42:38 14° N 05:45:05 10° NE visible
25 Jan ? 04:19:43 10° NNE 04:19:43 10° NNE 04:19:46 10° NNE visible
25 Jan ? 05:57:17 10° NNW 06:00:18 17° NNE 06:03:17 10° NE visible
26 Jan ? 04:36:03 13° NNE 04:36:03 13° NNE 04:37:18 10° NNE visible
26 Jan ? 06:14:10 10° NNW 06:17:51 23° NNE 06:21:29 10° ENE visible
27 Jan ? 04:52:24 15° N 04:52:38 15° N 04:55:21 10° NE visible
28 Jan ? 05:08:46 17° N 05:10:15 19° NNE 05:13:35 10° ENE visible
29 Jan ? 05:25:10 17° NNW 05:27:45 28° NNE 05:31:40 10° E visible
30 Jan ? 04:04:32 14° NE 04:04:32 14° NE 04:05:37 10° NE visible
30 Jan ? 05:41:38 16° NW 05:45:05 48° NNE 05:49:27 10° ESE visible
31 Jan ? 04:21:03 22° NE 04:21:03 22° NE 04:23:49 10° ENE visible
31 Jan ? 05:58:09 13° NW 06:02:14 88° SW 06:06:45 10° SE visible
01 Feb ? 04:37:38 35° NNE 04:37:38 35° NNE 04:41:47 10° E visible
01 Feb ? 06:14:55 10° WNW 06:19:14 41° SW 06:23:28 10° SSE visible
